DW2182 Weather Reports


time (UTC)temp
C
wind
direction
speed
KPH
gust
KPH
rain 1hr
cm
rain 24hr
cm
rain mn
cm
humidity
%
barometer
mb
20260504110516 13 113 9.7 14.5 0.00 0.00 0.00 54 997.3
20260504100517 11 113 9.7 17.7 0.00 0.00 0.00 57 998.1
20260504081516 11 90 6.4 16.1 0.00 0.00 0.00 57 999.7
20260504080536 11 90 8.0 14.5 0.00 0.00 0.00 57 999.8
20260504050516 12 0.0 0.0 0.00 0.00 0.00 50 1002.5
20260504045516 12 0.0 0.0 0.00 0.00 0.00 48 1002.7
20260504044516 12 0.0 0.0 0.00 0.00 0.00 50 1002.8
20260504043516 12 0.0 0.0 0.00 0.00 0.00 53 1002.8
20260504042516 12 0.0 0.0 0.00 0.00 0.00 56 1003.1
20260504041516 12 0.0 0.0 0.00 0.00 0.00 56 1003.2
20260504040516 12 0.0 0.0 0.00 0.00 0.00 57 1003.4
20260504035516 12 0.0 0.0 0.00 0.00 0.00 55 1003.3
20260504034516 13 0.0 0.0 0.00 0.00 0.00 54 1003.6
20260504033516 13 0.0 0.0 0.00 0.00 0.00 55 1003.7
20260504032516 13 0.0 0.0 0.00 0.00 0.00 54 1003.9
20260504031516 14 0.0 0.0 0.00 0.00 0.00 53 1004.1
20260504030536 14 0.0 0.0 0.00 0.00 0.00 51 1004.1
20260504025536 15 0.0 0.0 0.00 0.00 0.00 49 1004.2
20260504024516 15 0.0 0.0 0.00 0.00 0.00 47 1004.2
20260504023516 16 0.0 0.0 0.00 0.00 0.00 46 1004.2
20260504022516 16 0.0 0.0 0.00 0.00 0.00 44 1004.2
20260504021556 17 0.0 0.0 0.00 0.00 0.00 43 1004.4
20260504020516 17 0.0 1.6 0.00 0.00 0.00 41 1004.3
20260504015516 18 0.0 0.0 0.00 0.00 0.00 39 1004.3
20260504014516 18 0.0 0.0 0.00 0.00 0.00 37 1004.3
20260504013516 19 0.0 0.0 0.00 0.00 0.00 35 1004.3
20260504012516 20 0.0 0.0 0.00 0.00 0.00 33 1004.3
20260504011517 20 0.0 0.0 0.00 0.00 0.00 32 1004.2
20260504010516 21 0.0 0.0 0.00 0.00 0.00 30 1004.2
20260504005515 21 0.0 1.6 0.00 0.00 0.00 27 1004.3
20260504004536 21 135 1.6 4.8 0.00 0.00 0.00 27 1004.3
20260504003536 21 135 3.2 4.8 0.00 0.00 0.00 26 1004.5
20260504002515 21 158 3.2 11.3 0.00 0.00 0.00 26 1004.7
20260504001516 21 135 6.4 8.0 0.00 0.00 0.00 26 1004.8
20260504000516 21 135 8.0 14.5 0.00 0.00 0.00 26 1005.0
20260503235516 21 135 6.4 14.5 0.00 0.00 0.00 25 1005.0
20260503234616 21 135 6.4 17.7 0.00 0.00 0.00 25 1005.2
20260503233516 22 135 8.0 20.9 0.00 0.00 0.00 25 1005.2
20260503232516 22 135 8.0 14.5 0.00 0.00 0.00 26 1005.3
20260503231516 22 135 8.0 16.1 0.00 0.00 0.00 26 1005.4
20260503230516 22 135 8.0 17.7 0.00 0.00 0.00 26 1005.4
20260503225536 22 135 9.7 20.9 0.00 0.00 0.00 26 1005.3
20260503224516 22 135 9.7 19.3 0.00 0.00 0.00 26 1005.5
20260503223515 22 135 11.3 19.3 0.00 0.00 0.00 26 1005.7
20260503222515 22 135 9.7 17.7 0.00 0.00 0.00 26 1005.8
20260503221535 23 135 9.7 16.1 0.00 0.00 0.00 26 1005.7
20260503220536 23 135 9.7 22.5 0.00 0.00 0.00 26 1005.8
20260503215516 23 135 12.9 20.9 0.00 0.00 0.00 27 1006.0
20260503214516 23 135 11.3 19.3 0.00 0.00 0.00 27 1005.9
20260503213517 23 135 9.7 19.3 0.00 0.00 0.00 28 1006.1
20260503212558 23 135 8.0 14.5 0.00 0.00 0.00 26 1006.2
20260503211518 23 113 11.3 27.4 0.00 0.00 0.00 28 1006.2
20260503210517 23 158 9.7 20.9 0.00 0.00 0.00 27 1006.5
20260503205518 23 135 11.3 22.5 0.00 0.00 0.00 28 1006.5
20260503204518 23 135 8.0 16.1 0.00 0.00 0.00 27 1006.6
20260503203518 23 135 12.9 25.7 0.00 0.00 0.00 29 1007.0
20260503202518 23 135 14.5 27.4 0.00 0.00 0.00 27 1007.1
20260503201518 23 135 9.7 19.3 0.00 0.00 0.00 32 1007.2
20260503200538 23 135 9.7 20.9 0.00 0.00 0.00 29 1007.2
20260503195518 23 135 11.3 24.1 0.00 0.00 0.00 29 1007.4
20260503194518 23 135 11.3 19.3 0.00 0.00 0.00 28 1007.5
20260503193518 23 135 12.9 24.1 0.00 0.00 0.00 30 1007.7
20260503192518 22 135 12.9 20.9 0.00 0.00 0.00 30 1007.7
20260503191517 22 135 12.9 32.2 0.00 0.00 0.00 30 1007.8
20260503190516 22 135 14.5 24.1 0.00 0.00 0.00 31 1007.8
20260503185517 22 135 12.9 24.1 0.00 0.00 0.00 30 1007.9
20260503184537 22 135 12.9 19.3 0.00 0.00 0.00 30 1007.9
20260503183518 22 135 16.1 30.6 0.00 0.00 0.00 29 1008.1
20260503182518 22 158 12.9 30.6 0.00 0.00 0.00 29 1008.1
20260503181518 22 135 14.5 24.1 0.00 0.00 0.00 30 1008.2
20260503180518 22 158 16.1 30.6 0.00 0.00 0.00 30 1008.4
20260503175517 21 135 11.3 25.7 0.00 0.00 0.00 30 1008.5
20260503174517 21 158 16.1 30.6 0.00 0.00 0.00 31 1008.5
20260503173557 21 158 16.1 33.8 0.00 0.00 0.00 31 1008.4
20260503172517 21 158 14.5 25.7 0.00 0.00 0.00 31 1008.7
20260503171517 21 158 12.9 22.5 0.00 0.00 0.00 34 1008.5
20260503170638 21 158 14.5 29.0 0.00 0.00 0.00 34 1008.6
20260503150557 16 135 11.3 24.1 0.00 0.00 0.00 46 1008.1
20260503130517 12 135 9.7 17.7 0.00 0.00 0.00 59 1007.0